Everett, WA

7:22 AM PDT on March 30, 2017 (GMT -0700)
Snohomish County

Weather History for KPAE - May, 2014

Change the Weather History Date:

Wednesday, May 7, 2014

  Actual Average Record
Temperature  
Mean Temperature 54 °F -  
Max Temperature 63 °F 61 °F 77 °F (1953)
Min Temperature 46 °F 44 °F 34 °F (1950)
Degree Days  
Heating Degree Days 10    
Growing Degree Days 4 (Base 50)    
Moisture  
Dew Point 44 °F    
Average Humidity 75    
Maximum Humidity 90    
Minimum Humidity 46    
Precipitation  
Precipitation 0.00 in - - ()
Sea Level Pressure  
Sea Level Pressure 30.00 in    
Wind  
Wind Speed 3 mph (NW)    
Max Wind Speed 10 mph    
Max Gust Speed -    
Visibility 10 miles    
Events      
Averages and records for this station are not official NWS values.
T = Trace of Precipitation, MM = Missing Value Source: NWS Daily Summary

Daily Weather History Graph

Daily Weather History Graph

Search for Another Location

Airport or City:

Trip Planner

Search our weather history database for the weather conditions in past years. The results will help you decide how hot, cold, wet, or windy it might be!

Date:

Astronomy

May. 07, 2014 Rise Set
Actual Time 5:41 AM PDT 8:30 PM PDT
Civil Twilight 5:06 AM PDT 9:06 PM PDT
Nautical Twilight 4:20 AM PDT 9:52 PM PDT
Astronomical Twilight 3:26 AM PDT 10:46 PM PDT
Moon 1:10 PM PDT (5/7) 2:15 AM PDT (5/7)
Length of Visible Light 16h 00m
Length of Day
14h 48m
First Quarter, 56% of the Moon is Illuminated
May 7
First Quarter
May 14
Full
May 21
Last Quarter
May 28
New
Jun 5
First Quarter

Hourly Weather History & Observations

Time (PDT) Temp. Dew Point Humidity Pressure Visibility Wind Dir Wind Speed Gust Speed Precip Events Conditions
12:53 AM 48.0 °F 43.0 °F 83% 30.04 in 10.0 mi NNE 5.8 mph - N/A   Clear
1:53 AM 48.0 °F 42.1 °F 80% 30.04 in 10.0 mi Calm Calm - N/A   Clear
2:29 AM 46.4 °F 42.8 °F 87% 30.05 in 10.0 mi Calm Calm - N/A   Scattered Clouds
2:53 AM 46.9 °F 43.0 °F 86% 30.04 in 10.0 mi Calm Calm - N/A   Partly Cloudy
3:33 AM 48.0 °F 43.0 °F 83% 30.05 in 10.0 mi Calm Calm - N/A   Mostly Cloudy
3:53 AM 48.0 °F 43.0 °F 83% 30.06 in 10.0 mi Calm Calm - N/A   Overcast
4:53 AM 46.9 °F 42.1 °F 83% 30.05 in 10.0 mi Calm Calm - N/A   Overcast
5:41 AM 46.9 °F 42.1 °F 83% 30.04 in 10.0 mi Calm Calm - N/A   Scattered Clouds
5:53 AM 46.0 °F 42.1 °F 86% 30.04 in 9.0 mi Calm Calm - N/A   Scattered Clouds
6:53 AM 46.9 °F 44.1 °F 90% 30.05 in 9.0 mi Calm Calm - N/A   Clear
7:53 AM 48.9 °F 45.0 °F 86% 30.05 in 9.0 mi Calm Calm - N/A   Mostly Cloudy
8:53 AM 50.0 °F 44.1 °F 80% 30.04 in 10.0 mi Calm Calm - N/A   Overcast
9:50 AM 50.0 °F 44.6 °F 82% 30.03 in 9.0 mi WSW 6.9 mph - N/A   Mostly Cloudy
9:53 AM 51.8 °F 46.4 °F 82% 30.03 in 9.0 mi West 6.9 mph - N/A   Mostly Cloudy
10:29 AM 52.0 °F 45.0 °F 77% 30.04 in 10.0 mi WSW 6.9 mph - N/A   Scattered Clouds
10:53 AM 53.6 °F 44.6 °F 72% 30.04 in 10.0 mi SW 3.5 mph - N/A   Clear
11:53 AM 55.0 °F 42.1 °F 62% 30.04 in 10.0 mi Variable 3.5 mph - N/A   Clear
12:53 PM 57.0 °F 42.1 °F 57% 30.01 in 10.0 mi Variable 3.5 mph - N/A   Scattered Clouds
1:53 PM 60.1 °F 46.0 °F 60% 29.98 in 10.0 mi Variable 3.5 mph - N/A   Clear
2:53 PM 59.0 °F 45.0 °F 60% 29.97 in 10.0 mi West 5.8 mph - N/A   Clear
3:53 PM 60.1 °F 44.1 °F 55% 29.95 in 10.0 mi Variable 4.6 mph - N/A   Clear
4:53 PM 62.1 °F 44.1 °F 52% 29.93 in 10.0 mi West 8.1 mph - N/A   Clear
5:53 PM 63.0 °F 42.1 °F 46% 29.92 in 10.0 mi North 3.5 mph - N/A   Clear
6:53 PM 57.0 °F 44.1 °F 62% 29.92 in 10.0 mi North 10.4 mph - N/A   Clear
7:53 PM 54.0 °F 45.0 °F 72% 29.91 in 10.0 mi North 10.4 mph - N/A   Clear
8:53 PM 52.0 °F 46.0 °F 80% 29.91 in 10.0 mi North 3.5 mph - N/A   Clear
9:53 PM 51.1 °F 46.0 °F 83% 29.90 in 10.0 mi North 3.5 mph - N/A   Clear
10:53 PM 51.1 °F 45.0 °F 80% 29.88 in 10.0 mi North 5.8 mph - N/A   Clear
11:53 PM 50.0 °F 46.0 °F 86% 29.88 in 10.0 mi NNW 3.5 mph - N/A   Clear